Regional Weather Roundup
Issued by NWS Newport/Morehead, NC

Current Version | Previous Version | Graphics & Text | Print | Product List | Glossary Off
Versions: 1 2 3 4 5 6 7 8 9 10 11 12 13 14 15 16 17 18 19 20 21 22 23 24 25 26 27 28 29 30 31 32 33 34 35 36 37 38 39 40 41 42 43 44 45 46 47 48 49 50

000
ASUS42 KMHX 231626
RWRMHX
WEATHER ROUNDUP FOR EASTERN NORTH CAROLINA
NATIONAL WEATHER SERVICE NEWPORT/MOREHEAD CITY NC
1100 AM EST THU NOV 23 2017

NOTE: "FAIR" INDICATES FEW OR NO CLOUDS BELOW 12,000 FEET
WITH NO SIGNIFICANT WEATHER AND/OR OBSTRUCTIONS TO VISIBILITY

NCZ015>017-031-032-045>047-102-103-231700-
NORTH COAST

CITY           SKY/WX    TMP DP  RH WIND       PRES   REMARKS
EDENTON        MOSUNNY   46  36  67 CALM      30.17F
ELIZABETH CITY CLOUDY    48  37  65 N8        30.17R
KITTY HAWK     PTSUNNY   48  36  62 CALM      30.13F
MANTEO         MOSUNNY   49  37  63 N12       30.15F

$$

NCZ045>047-081-094-103-104-231700-
CENTRAL COAST

CITY           SKY/WX    TMP DP  RH WIND       PRES   REMARKS
FRISCO         SUNNY     55  44  66 N10G16    30.12R

$$

NCZ095-097-098-100-101-231700-
SOUTHERN COAST

CITY           SKY/WX    TMP DP  RH WIND       PRES   REMARKS
BEAUFORT       CLOUDY    51  42  71 N13       30.12F
CEDAR ISLAND   NOT AVBL
JACKSONVILLE   PTSUNNY   48  39  71 N8        30.13F
PINEY ISLAND   NOT AVBL
WILMINGTON     CLOUDY    48  37  65 N9        30.12F


$$

NCZ011>013-027>030-043-044-078>080-089-090>093-098-231700-
COASTAL PLAIN

CITY           SKY/WX    TMP DP  RH WIND       PRES   REMARKS
AHOSKIE        MOSUNNY   43  30  60 N5        30.19S
CLINTON        CLOUDY    45  33  64 NE5       30.15F
ELIZABETHTOWN  NOT AVBL
GOLDSBORO      PTSUNNY   44  30  59 NE5       30.15F
GREENVILLE     PTSUNNY   45  32  61 N6        30.17F
HAVELOCK       NOT AVBL
KENANSVILLE    CLOUDY    45  32  61 NE6       30.15F
KINSTON        CLOUDY    45  32  61 N8        30.17F
NEW BERN       MOSUNNY   48  39  71 N8        30.15F
RICHLANDS      CLOUDY    46  35  65 N7        30.14F
ROCKY MOUNT    MOSUNNY   45  30  55 N5        30.17F
WASHINGTON     CLOUDY    46  34  62 NE6       30.16F
WHITEVILLE     CLOUDY    46  35  66 N5        30.12F

$$

AMZ130-135-150-152-154-156-158-170-250-252-270-ANZ085-086-088-633-658-670-231700-
MARINE OBSERVATIONS

STATION/POSITION TIME  TEMP    WIND        PRES    WAVE   SWELL
                       AIR SEA DIR/SP/G            HT/PER HT/PER
                 (UTC) (F)     (DEG/KT/KT) (MB)    (FT/S) (FT/S)
CHESAPEAKE LIGHT NOT AVBL
64 E VA BEACH    1550   47 61  340/ 10/ 14 1020.4    6/ 8   5/ 8
DUCK             1600   46 58   10/ 11/ 15 1020.5
2 E DUCK         1600      60                N/A     5/ 9   2/11
OREGON INLET     1600   49 58  360/  9/ 13 1020.3
13E OREGON INLT  1548      63                N/A     6/ 9   5/ 9
HATTERAS CG      1600   51 58   20/ 14/ 16 1019.5
DIAMOND BUOY     1610   57 71   10/ 14/ 16 1019.2
CAPE LOOKOUT     1600           30/ 12/ 15 1020.0
BEAUFORT LAB     1600   50 59   20/  8/ 15 1019.7
30 SE NEW RVR IN 1608   54 67   50/ 14/ 19 1019.1
30 SE NEW RVR IN 1600      67                N/A     6/10   2/11
27 SE WRIGHTSVLE 1608   56 71   50/ 16/ 25 1018.1
5 SE WRIGHTSVLE  1608   51 63   40/ 12/ 16 1019.4
225 S CAPE HAT   1550   72 76   50/ 16/ 17 1014.7    7/ 9   5/ 9
41 SE CHARLESTON 1610   66 75   30/ 21/ 27 1015.6

$$



USA.gov is the U.S. government's official web portal to all federal, state and local government web resources and services.